Location: Neuch�tel
(46.9931°N, 6.9301°E)
Time: 01:24:41
(UTC+00:00)

Daily predictions for brighter satellites

Satellite Brightness Start Highest point End
(mag) Time Altitude Azimuth Time Altitude Azimuth Time Altitude Azimuth
STARLINK-1099 4.4 00:00:29 10° WNW 00:03:25 39° W 00:03:25 39° W
ATLAS CENTAUR R/B 3.8 00:02:52 10° NNW 00:04:41 19° NNE 00:07:25 10° E
GEOS 3 Rocket 3.6 00:07:39 29° SE 00:10:26 87° NE 00:15:46 10° NW
Cosmos 1726 3.2 00:07:46 10° NNW 00:10:54 32° W 00:10:54 32° W
Cosmos 2058 Rocket 3.6 00:08:03 10° N 00:12:23 53° ENE 00:13:46 37° SE
STARLINK-1235 4.2 00:09:50 10° NW 00:12:47 40° NNE 00:15:45 10° E
STARLINK-1187 4.3 00:10:15 10° NW 00:13:11 37° NNE 00:16:07 10° E
COSMOS 2455 2.9 00:11:40 41° S 00:13:39 64° ESE 00:19:37 10° NE
Meteor 1-29 3.1 00:10:17 10° NNE 00:13:32 64° E 00:13:32 64° E
STARLINK-1191 4.5 00:11:37 10° NW 00:14:32 36° NNE 00:17:27 10° E
Cosmos 2228 2.8 00:10:40 10° NNW 00:14:57 77° W 00:15:32 63° SSW
STARLINK-1221 4.4 00:12:30 10° NW 00:15:25 36° NNE 00:18:19 10° E
SJ 16-02 4.1 00:13:08 10° NNE 00:15:40 15° NE 00:18:12 10° E
STARLINK-1222 4.4 00:13:23 10° NW 00:16:18 37° NNE 00:19:14 10° E
STARLINK-1214 4.4 00:14:18 10° NW 00:17:13 37° NNE 00:20:08 10° E
SL-14 R/B 3.9 00:18:39 41° ESE 00:19:11 44° E 00:22:53 10° NNE
Cosmos 1953 3.7 00:16:02 10° NNW 00:19:22 25° W 00:19:26 25° W
IRAS Rocket 4.3 00:17:53 32° SSE 00:20:34 78° ENE 00:26:09 10° NNW
Cosmos 1340 Rocket 3.8 00:17:25 10° NNW 00:21:04 33° W 00:21:08 33° W
Okean 1-7 Rocket 3.8 00:22:03 47° SSE 00:23:06 63° E 00:27:34 10° NNE
Cosmos 1174 3.6 00:23:33 57° E 00:23:33 57° E 00:26:45 10° NE
Cosmos 1300 3.4 00:20:26 10° N 00:24:09 48° ENE 00:25:04 39° ESE
Cosmos 921 Rocket 4.0 00:23:34 30° SE 00:24:26 33° E 00:28:18 10° NE
BREEZE M DEB (TANK) 3.5 00:26:49 29° ENE 00:26:49 29° ENE 00:28:39 10° E
COSMOS 2487 2.9 00:24:22 10° NNW 00:27:18 48° WNW 00:27:18 48° WNW
Cosmos 1626 2.1 00:34:31 62° SE 00:34:56 71° E 00:38:39 10° NNE
STARLINK-60 3.6 00:36:27 47° E 00:36:27 47° E 00:38:56 10° ENE
Cosmos 1656 Rocket 4.2 00:33:51 28° WSW 00:36:35 51° WNW 00:42:02 10° NNE
Cosmos 1606 Rocket 4.0 00:34:09 10° NNW 00:38:14 42° W 00:38:48 40° WSW
FALCON 9 R/B 3.6 00:38:25 32° SSW 00:40:44 38° SSE 00:57:21 10° ESE
Nadezhda 1 Rocket 4.3 00:35:36 10° N 00:41:43 62° ENE 00:45:52 22° SSE
MOZ.5/SAFIR/RUBIN 5/SL-8 4.0 00:44:16 29° SSE 00:46:33 66° ENE 00:51:11 10° N
UNK 4.5 00:44:00 21° SE 00:46:53 50° ENE 00:51:20 10° N
Meteor 2-21 4.5 00:45:34 35° SSW 00:48:18 72° W 00:54:31 10° N
Cosmos 2297 Rocket 3.4 00:42:59 10° NNW 00:48:19 40° NE 00:53:36 10° ESE
SL-4 R/B 2.3 00:49:12 42° SW 00:50:48 73° SSE 00:55:32 10° ENE
Cosmos 1437 2.7 00:52:48 62° E 00:52:48 62° E 00:55:46 10° NNE
NOSS 5 (C) 4.4 00:49:39 10° NW 00:52:52 74° SW 00:53:30 56° SSE
Cosmos 1674 4.1 00:53:21 24° W 00:53:56 25° WNW 00:57:07 10° NNW
SL-19 R/B 4.2 00:52:07 10° NNE 00:57:29 75° WNW 01:00:03 33° SSW
ATLAS CENTAUR R/B 1.5 00:56:56 40° SW 00:58:23 71° NW 01:02:32 10° NNE
Cosmos 1777 Rocket 4.1 00:54:49 10° NNW 00:59:57 57° WSW 01:01:54 35° SSW
Timation 2 Rocket 3.9 00:53:58 10° NNW 01:00:20 75° WSW 01:04:30 22° SSE
SL-16 R/B 2.6 00:56:01 19° SSE 01:00:38 78° ENE 01:06:50 10° NNW
NOSS 3-4 (A) 3.9 00:57:31 22° WSW 01:01:24 57° NW 01:07:45 10° NE
NOSS 3-4 (C) 3.9 00:57:37 22° WSW 01:01:30 57° NW 01:07:51 10° NE
BREEZE-M R/B 3.3 01:01:07 40° S 01:01:48 43° SSE 01:04:52 10° E
FALCON 9 DEB 4.1 01:02:08 34° SE 01:02:08 34° SE 01:05:04 10° ENE
Cosmos 1602 Rocket 4.0 01:01:57 31° SSE 01:03:46 54° E 01:08:00 10° NNE
STARLINK-29 3.1 01:04:34 55° SE 01:04:34 55° SE 01:07:34 10° ENE
Cosmos 1455 3.8 01:03:10 10° N 01:06:31 30° ENE 01:09:23 13° SE
ATLAS 3B R/B 2.8 01:00:54 10° NW 01:07:32 57° WSW 01:12:43 18° SSE
BREEZE-M DEB (TANK) 4.4 01:09:30 11° ESE 01:09:30 11° ESE 01:09:43 10° E
CENTAUR R/B 3.9 01:04:03 10° NW 01:11:13 34° WSW 01:14:47 25° SSW
GP-B 4.4 01:08:46 10° NNE 01:12:55 36° E 01:16:10 15° SSE
BREEZE-M DEB (TANK) 1.2 01:12:38 61° WNW 01:12:57 74° NNW 01:15:14 10° ENE
STARLINK-1206 4.4 01:09:43 10° WNW 01:13:48 53° NNE 01:17:52 10° E
Meteor 2-1 Rocket 4.3 01:08:25 10° N 01:13:57 76° ENE 01:18:04 18° SSE
Cosmos 1867 4.4 01:11:02 10° NW 01:15:46 31° WSW 01:16:44 29° SW
Cosmos 1745 Rocket 3.9 01:12:45 28° SSW 01:16:11 83° W 01:22:22 10° N
STARLINK-1205 4.3 01:14:42 10° WNW 01:18:48 56° NNE 01:22:52 10° E
RESURS DK-1 2.5 01:19:17 36° SW 01:20:48 68° WNW 01:24:57 10° NNE
STARLINK-1218 4.2 01:19:40 10° WNW 01:23:46 59° NNE 01:27:52 10° ESE
Cosmos 2227 Rocket 2.7 01:18:24 10° NNW 01:24:03 62° ENE 01:29:41 10° SE
Cosmos 1356 Rocket 3.5 01:20:08 10° NNW 01:24:14 61° W 01:25:49 34° SSW
Meteor 1-24 Rocket 4.2 01:22:03 26° SW 01:24:33 42° WNW 01:29:41 10° N
Cosmos 2369 Rocket 4.5 01:22:59 10° WNW 01:26:26 16° NW 01:29:54 10° N
CZ-2D R/B 2.0 01:21:57 10° NNE 01:27:16 89° ESE 01:30:15 27° SSW
Cosmos 1697 Rocket 4.2 01:23:12 12° SSE 01:27:22 28° ESE 01:32:05 10° NE
STARLINK-1254 4.1 01:24:39 10° WNW 01:28:46 62° NNE 01:32:53 10° ESE
ADEOS II 3.1 01:24:57 10° NNE 01:29:52 39° E 01:34:07 13° SSE
ATLAS 2AS CENTAUR R/B 3.8 01:23:17 12° WSW 01:30:31 47° NW 01:38:05 10° NE
CZ-4C R/B 3.9 01:30:46 32° SSW 01:32:14 46° W 01:36:25 10° NNW
STARLINK-1231 4.0 01:29:39 10° WNW 01:33:47 65° NNE 01:37:54 10° ESE
STARLINK-1228 3.2 01:32:15 10° WNW 01:35:29 48° SW 01:38:43 10° SE
STARLINK-1234 3.0 01:33:40 10° WNW 01:36:42 48° SW 01:37:02 45° SSW
Resurs 1-4 Rocket 2.1 01:31:43 10° N 01:37:01 75° WNW 01:40:11 25° SSW
STARLINK-1212 2.7 01:35:01 10° WNW 01:38:05 63° SSW 01:41:09 10° SE
STARLINK-1105 2.7 01:35:29 10° WNW 01:38:33 62° SSW 01:41:36 10° SE
STARLINK-1232 3.9 01:34:37 10° WNW 01:38:46 69° NNE 01:42:54 10° ESE
STARLINK-1209 3.2 01:35:57 10° WNW 01:38:42 42° SW 01:38:42 42° SW
STARLINK-1247 2.8 01:36:23 10° WNW 01:39:28 61° SW 01:42:33 10° SE
USA 81 4.0 01:36:19 23° S 01:39:39 85° W 01:44:59 10° N
STARLINK-1227 2.7 01:36:51 10° WNW 01:39:54 60° SW 01:42:58 10° SE
STARLINK-1226 2.8 01:37:42 10° WNW 01:40:47 59° SW 01:43:51 10° SE
STARLINK-52 2.9 01:39:41 37° WSW 01:40:51 84° NNW 01:44:03 10° ENE
STARLINK-1215 2.8 01:38:38 10° WNW 01:41:44 58° SW 01:44:47 10° SE
ARIANE 5 R/B 4.0 01:37:28 10° NNE 01:41:56 31° E 01:46:21 10° SSE
Cosmos 1758 Rocket 3.8 01:39:23 21° S 01:42:08 66° E 01:46:28 10° NNE
STARLINK-1217 2.8 01:40:25 10° WNW 01:43:29 56° SW 01:46:33 10° SE
STARLINK-1208 3.8 01:39:35 10° WNW 01:43:44 73° NNE 01:47:53 10° ESE
STARLINK-1229 2.8 01:41:20 10° WNW 01:44:24 55° SW 01:47:28 10° SE
NPP 3.7 01:39:03 10° NNE 01:44:27 76° WNW 01:47:57 23° SSW
H-2A R/B 4.3 01:41:26 10° ESE 01:45:00 26° ENE 01:48:40 10° N
STARLINK-1270 2.9 01:42:12 10° WNW 01:45:16 54° SW 01:48:19 10° SE
STARLINK-1189 2.9 01:44:03 10° WNW 01:47:07 52° SW 01:50:09 10° SE
STARLINK-1188 2.9 01:44:56 10° WNW 01:47:59 51° SW 01:51:01 10° SE
STARLINK-1235 3.2 01:45:40 10° WNW 01:48:37 39° SW 01:51:32 10° SSE
STARLINK-1271 3.7 01:44:35 10° WNW 01:48:44 77° NNE 01:52:53 10° ESE
STARLINK-1187 3.1 01:46:04 10° WNW 01:49:03 44° SW 01:52:02 10° SE
Cosmos 1898 Rocket 3.6 01:43:56 10° NNW 01:49:19 81° ENE 01:54:38 10° SSE
STARLINK-1191 3.0 01:47:25 10° WNW 01:50:27 49° SW 01:53:26 10° SE
Starlink 7 placeholder 4.1 01:49:43 16° NW 01:50:31 20° NNW 01:52:07 10° NE
Meteor 1-21 Rocket 4.2 01:46:49 21° SSW 01:50:39 83° W 01:56:22 10° N
Lacrosse 4 Rocket 3.4 01:46:56 10° NNW 01:50:55 33° NE 01:54:47 10° ESE
STARLINK-1221 3.0 01:48:17 10° WNW 01:51:18 48° SW 01:54:18 10° SE
STARLINK-1222 3.0 01:49:12 10° WNW 01:52:12 47° SW 01:55:11 10° SE
Cosmos 1656 3.8 01:48:20 21° SSW 01:52:14 75° ESE 01:57:52 10° NNE
STARLINK-1214 3.0 01:50:07 10° WNW 01:53:06 46° SW 01:56:05 10° SE
STARLINK-1154 3.7 01:49:34 10° WNW 01:53:43 82° NNE 01:57:53 10° ESE
CZ-4C R/B 3.1 01:50:43 16° S 01:54:12 37° ESE 01:59:28 10° NE
Cosmos 2285 Rocket 4.4 01:48:23 10° NNW 01:54:46 66° ENE 02:01:04 10° SSE
SJ 16-02 1.3 01:50:23 10° NNW 01:54:50 77° WSW 01:59:15 10° SSE
Cosmos 2084 3.6 01:52:18 23° SW 01:54:59 70° NW 01:59:29 10° NE
Cosmos 468 Rocket 4.0 01:52:22 20° SSW 01:55:56 75° ESE 02:01:04 10° NNE
Cosmos 1953 Rocket 4.2 01:54:38 13° S 01:58:28 55° E 02:02:49 10° NNE
STARLINK-1197 3.6 01:54:32 10° WNW 01:58:43 87° NE 02:02:51 10° ESE
Cosmos 1937 Rocket 3.7 01:54:20 10° NNW 01:59:34 73° ENE 02:04:50 10° SSE
COSMOS 2455 4.2 01:54:47 10° WSW 02:00:02 31° NW 02:05:21 10° NNE
Cosmos 2369 4.4 01:55:55 14° S 02:00:34 47° ESE 02:05:59 10° NE
Meteor 2-10 Rocket 3.6 01:56:28 10° NNW 02:01:44 61° W 02:06:01 14° S
Cosmos 921 Rocket 4.4 02:00:21 16° WSW 02:02:46 26° WNW 02:06:26 10° N
STARLINK-1198 3.5 01:59:30 10° WNW 02:03:40 88° SSW 02:07:48 10° ESE
Cosmos 1709 Rocket 4.1 02:01:47 18° SSW 02:06:22 63° WNW 02:12:28 10° N
STARLINK-1199 3.5 02:04:31 10° WNW 02:08:40 83° SSW 02:12:49 10° SE
STARLINK-60 4.5 02:09:07 10° W 02:12:04 34° NNW 02:15:03 10° NE
STARLINK-1210 3.5 02:09:29 10° WNW 02:13:38 78° SSW 02:17:46 10° SE
STARLINK-1320 2.8 02:14:52 23° SW 02:16:38 71° SSE 02:19:46 10° ENE
Cosmos 2219 3.7 02:11:33 10° NW 02:16:47 39° WSW 02:21:57 10° S
STARLINK-1322 2.8 02:15:11 23° SW 02:16:59 71° SSE 02:20:06 10° ENE
STARLINK-1324 2.8 02:15:32 22° SW 02:17:20 72° SSE 02:20:27 10° ENE
STARLINK-1294 2.8 02:15:47 22° SW 02:17:37 72° SSE 02:20:45 10° ENE
STARLINK-1261 2.8 02:16:09 22° SW 02:17:59 73° SSE 02:21:06 10° ENE
STARLINK-1325 2.8 02:16:30 22° SW 02:18:20 73° SSE 02:21:28 10° ENE
STARLINK-1219 3.5 02:14:28 10° WNW 02:18:36 72° SSW 02:22:44 10° SE
STARLINK-1333 2.8 02:16:48 22° SW 02:18:39 74° SSE 02:21:46 10° ENE
STARLINK-1334 2.8 02:17:07 22° SW 02:18:59 74° SSE 02:22:07 10° ENE
STARLINK-1326 2.8 02:17:28 22° SW 02:19:20 75° SSE 02:22:28 10° ENE
Cosmos 1980 Rocket 3.3 02:14:23 10° S 02:19:31 38° ESE 02:24:42 10° NE
STARLINK-1323 2.8 02:17:47 21° SW 02:19:40 75° SSE 02:22:48 10° ENE
STARLINK-1338 3.2 02:17:39 20° SW 02:19:54 69° SSE 02:23:22 10° ENE
STARLINK-1349 2.8 02:18:06 21° SW 02:20:00 76° SSE 02:23:08 10° ENE
Cosmos 858 Rocket 4.5 02:14:57 10° NNW 02:20:14 77° WSW 02:25:30 10° SSE
STARLINK-1336 2.8 02:18:28 21° SW 02:20:23 76° SSE 02:23:30 10° ENE
STARLINK-1331 2.8 02:18:45 21° SW 02:20:41 76° SSE 02:23:49 10° ENE
STARLINK-1344 2.8 02:19:05 21° SW 02:21:01 77° SSE 02:24:08 10° ENE
STARLINK-1343 2.8 02:19:25 21° SW 02:21:22 77° SSE 02:24:29 10° ENE
STARLINK-1346 2.8 02:19:43 20° SW 02:21:43 78° SSE 02:24:53 10° ENE
STARLINK-1328 2.8 02:20:05 20° SW 02:22:03 78° SSE 02:25:11 10° ENE
Cosmos 1328 3.9 02:19:19 17° SSW 02:22:19 63° W 02:26:18 10° N
STARLINK-1354 2.8 02:20:22 20° SW 02:22:22 79° SSE 02:25:30 10° ENE
CRYOSAT 2 4.4 02:17:38 10° N 02:22:33 75° W 02:27:17 11° SSW
STARLINK-1347 2.8 02:20:44 20° SW 02:22:44 79° SSE 02:25:51 10° ENE
STARLINK-1357 2.8 02:21:02 20° SW 02:23:03 80° SSE 02:26:10 10° ENE
STARLINK-1335 2.8 02:21:22 20° SW 02:23:23 80° SSE 02:26:32 10° ENE
STARLINK-1211 3.5 02:19:26 10° WNW 02:23:34 67° SSW 02:27:40 10° SE
STARLINK-1327 2.8 02:21:40 20° SW 02:23:43 81° SSE 02:26:50 10° ENE
STARLINK-1371 3.1 02:21:31 19° SW 02:23:56 74° SSE 02:27:26 10° ENE
STARLINK-1340 2.8 02:22:01 19° SW 02:24:05 81° SSE 02:27:13 10° ENE
STARLINK-1356 2.8 02:22:21 19° SW 02:24:25 82° SSE 02:27:32 10° ENE
ERS-2 2.2 02:20:51 10° SSE 02:24:30 80° ENE 02:28:11 10° NNW
STARLINK-1345 2.8 02:22:40 19° SW 02:24:45 82° SSE 02:27:53 10° ENE
STARLINK-1355 2.8 02:22:59 19° SW 02:25:05 83° SSE 02:28:13 10° ENE
STARLINK-1321 2.8 02:23:18 19° WSW 02:25:25 83° SSE 02:28:33 10° ENE
STARLINK-1358 2.8 02:23:39 19° WSW 02:25:46 84° SSE 02:28:55 10° ENE
STARLINK-1341 3.1 02:23:29 18° SW 02:25:58 77° SSE 02:29:28 10° ENE
STARLINK-1332 2.8 02:23:57 19° WSW 02:26:05 84° SSE 02:29:12 10° ENE
STARLINK-1348 2.8 02:24:18 18° WSW 02:26:27 85° SSE 02:29:35 10° ENE
STARLINK-1330 2.8 02:24:36 18° WSW 02:26:45 85° SSE 02:29:54 10° ENE
STARLINK-1363 2.8 02:24:56 18° WSW 02:27:06 86° SSE 02:30:14 10° ENE
STARLINK-1337 2.8 02:25:15 18° WSW 02:27:26 86° SSE 02:30:34 10° ENE
STARLINK-1342 2.8 02:25:35 18° WSW 02:27:47 87° SSE 02:30:54 10° ENE
STARLINK-1374 3.1 02:25:26 17° SW 02:28:01 79° SSE 02:31:32 10° ENE
STARLINK-1364 2.8 02:25:55 18° WSW 02:28:08 87° SE 02:31:15 10° ENE
IRS-1C 4.1 02:22:50 10° NNE 02:28:12 82° WNW 02:33:25 11° SSW
STARLINK-1376 2.8 02:26:15 18° WSW 02:28:29 88° SE 02:31:37 10° ENE
STARLINK-1245 3.6 02:24:27 10° WNW 02:28:33 62° SW 02:32:38 10° SE
STARLINK-1360 2.8 02:26:30 17° WSW 02:28:44 88° SSE 02:31:53 10° ENE
STARLINK-1361 2.8 02:26:56 17° WSW 02:29:11 89° SE 02:32:19 10° ENE
STARLINK-1367 2.8 02:27:10 17° WSW 02:29:27 89° SSE 02:32:37 10° ENE
CSL-04 DEB 4.5 02:25:32 10° S 02:29:45 72° WSW 02:34:06 10° NNW
STARLINK-1366 2.8 02:27:33 17° WSW 02:29:49 89° SSW 02:32:57 10° ENE
STARLINK-1339 3.1 02:27:27 16° SW 02:30:06 82° SSE 02:33:37 10° ENE
SL-4 R/B 3.1 02:26:03 10° W 02:30:46 52° N 02:35:17 10° ENE
CZ-4B R/B 4.4 02:26:22 10° N 02:31:01 35° WNW 02:35:13 13° SW
STARLINK-1377 3.1 02:29:28 16° WSW 02:32:12 85° SSE 02:35:43 10° ENE
Cosmos 2297 Rocket 2.8 02:27:10 10° NW 02:32:18 37° WSW 02:37:25 10° S
STARLINK-1233 3.6 02:29:25 10° WNW 02:33:30 58° SW 02:37:33 10° SE
STARLINK-1203 4.5 02:29:30 10° WNW 02:33:38 55° NNE 02:37:47 10° E
STARLINK-1353 3.1 02:31:17 15° WSW 02:34:04 87° SSE 02:37:33 10° ENE
STARLINK-1143 4.4 02:31:40 10° WNW 02:35:45 55° NNE 02:39:50 10° E
STARLINK-1375 3.1 02:33:04 15° WSW 02:35:55 89° ESE 02:39:25 10° ENE
Cosmos 2082 3.7 02:30:34 10° NNW 02:36:11 66° WSW 02:41:44 10° SSE
Cosmos 540 Rocket 3.6 02:32:30 10° SSW 02:37:38 74° ESE 02:42:46 10° NNE
ATLAS CENTAUR R/B 3.8 02:35:27 10° WNW 02:37:57 15° NNW 02:40:22 10° N
STARLINK-1350 3.1 02:35:22 14° WSW 02:38:19 87° NNW 02:41:49 10° ENE
STARLINK-1204 3.7 02:34:26 10° WNW 02:38:29 53° SW 02:42:30 10° SE
FALCON 9 DEB 3.9 02:35:30 10° W 02:38:53 49° NNW 02:42:16 10° NE
STARLINK-29 4.3 02:37:42 10° W 02:40:42 35° NNW 02:43:40 10° NE
STARLINK-1352 3.2 02:37:40 13° WSW 02:40:44 84° NNW 02:44:16 10° ENE
STARLINK-1241 4.3 02:36:39 10° WNW 02:40:45 57° NNE 02:44:50 10° ESE
OE (NEXTSAT) 4.3 02:37:21 10° W 02:40:51 77° S 02:44:19 10° E
Landsat 5 4.1 02:36:56 10° SSE 02:41:23 69° ENE 02:45:54 10° N
Cosmos 1825 Rocket 4.3 02:38:21 13° SW 02:41:49 36° WNW 02:45:50 10° N
Cosmos 1455 3.7 02:39:09 10° NW 02:41:57 20° W 02:44:16 12° SW
Cosmos 2278 4.0 02:36:28 10° SSW 02:42:03 69° ESE 02:47:42 10° NNE
CZ-2D R/B 3.6 02:38:27 10° NNE 02:42:34 75° ESE 02:46:46 10° S
STARLINK-1368 3.2 02:39:45 12° WSW 02:42:55 82° NNW 02:46:28 10° ENE
STARLINK-1238 3.8 02:39:24 10° WNW 02:43:24 49° SW 02:47:24 10° SE
USA 234 4.2 02:38:04 10° ENE 02:44:08 40° SE 02:50:12 10° SSW
Meteor 1-11 4.2 02:38:37 10° SSW 02:44:15 77° WNW 02:49:53 10° N
Meteor 1-28 Rocket 3.2 02:40:37 10° S 02:44:21 65° W 02:48:07 10° NNW
STARLINK-1369 3.2 02:41:37 12° WSW 02:44:50 79° NNW 02:48:21 10° ENE
SL-16 R/B 3.9 02:41:06 11° SW 02:44:55 19° W 02:49:11 10° NW
STARLINK-1239 4.2 02:41:37 10° WNW 02:45:45 60° NNE 02:49:50 10° ESE
ATLAS CENTAUR R/B 3.2 02:43:39 10° WNW 02:46:57 32° SW 02:53:51 10° SSE
STARLINK-1372 3.3 02:43:58 11° WSW 02:47:18 77° NNW 02:50:51 10° ENE
Cosmos 2074 Rocket 4.1 02:41:22 10° SSW 02:47:40 76° W 02:53:59 10° N
Cosmos 2263 Rocket 3.6 02:42:45 10° NNW 02:48:08 43° NE 02:53:26 10° SE
STARLINK-1201 3.9 02:44:25 10° WNW 02:48:23 45° SW 02:52:20 10° SE
STARLINK-1378 3.3 02:46:05 11° WSW 02:49:32 74° NNW 02:53:04 10° ENE
Cosmos 372 Rocket 4.0 02:44:45 10° NNW 02:49:55 88° ENE 02:55:03 10° SSE
Cosmos 841 Rocket 3.5 02:44:40 10° SSW 02:49:56 83° WNW 02:55:12 10° NNE
GP-B 4.5 02:46:28 10° NNW 02:50:01 24° WNW 02:53:34 10° SW
STARLINK-1329 3.3 02:46:35 10° WSW 02:50:03 74° NNW 02:53:37 10° ENE
STARLINK-1240 4.1 02:46:37 10° WNW 02:50:44 64° NNE 02:54:51 10° ESE
IRS-1D 4.5 02:45:56 10° N 02:50:46 36° WNW 02:55:34 10° SW
STARLINK-1365 3.4 02:47:17 10° WSW 02:50:47 71° NNW 02:54:19 10° ENE
STARLINK-1379 3.3 02:48:13 10° WSW 02:51:45 72° NNW 02:55:18 10° ENE
STARLINK-1362 3.4 02:48:49 10° WSW 02:52:21 72° NNW 02:55:54 10° ENE
STARLINK-1206 4.0 02:49:25 10° WNW 02:53:20 42° SW 02:57:15 10° SSE
Cosmos-2242 4.2 02:50:03 10° NNW 02:53:32 25° W 02:57:00 10° SW
Cosmos 1892 4.4 02:50:15 10° SSE 02:53:42 33° E 02:57:10 10° NNE
Cosmos 1869 3.8 02:50:27 10° N 02:54:21 63° E 02:58:10 10° SSE
COBE Rocket 4.1 02:49:36 10° S 02:54:25 56° W 02:59:25 10° NNW
STARLINK-1373 3.4 02:51:07 10° WSW 02:54:39 69° NNW 02:58:12 10° ENE
Cosmos 1400 Rocket 3.1 02:50:55 10° NNW 02:54:54 50° W 02:58:54 10° S
STARLINK-1216 4.1 02:51:35 10° WNW 02:55:44 67° NNE 02:59:51 10° ESE
Cosmos 2221 2.7 02:51:24 10° N 02:55:44 77° E 03:00:04 10° SSE
STARLINK-1390 3.4 02:53:11 10° WSW 02:56:42 67° NNW 03:00:15 10° ENE
ATLAS 3B R/B 4.4 02:55:35 10° W 02:56:53 11° WSW 02:58:11 10° WSW
STARLINK-1205 4.1 02:54:26 10° WNW 02:58:17 39° SW 03:02:09 10° SSE
Cosmos 2184 Rocket 4.1 02:53:05 10° SSW 02:59:13 65° WNW 03:05:21 10° N
SL-08 R/B 4.0 02:55:43 10° SSW 03:00:00 34° W 03:04:14 10° NNW
CZ-4C R/B 3.1 02:56:45 10° S 03:00:18 66° WSW 03:03:57 10° NNW
STARLINK-1237 4.0 02:56:34 10° WNW 03:00:43 71° NNE 03:04:51 10° ESE
STARLINK-1218 4.2 02:59:26 10° WNW 03:03:14 36° SW 03:07:01 10° SSE
STARLINK-1202 3.9 03:01:33 10° WNW 03:05:43 76° NNE 03:09:51 10° ESE
CZ-2D R/B 4.0 03:03:32 10° NNW 03:06:35 16° NW 03:09:37 10° W
Cosmos 2227 Rocket 3.4 03:03:18 10° NW 03:07:38 23° W 03:11:56 10° SSW
STARLINK-1254 4.3 03:04:27 10° WNW 03:08:11 33° SW 03:11:55 10° SSE
Cosmos 1763 Rocket 4.4 03:04:18 10° WSW 03:08:56 34° WNW 03:13:34 10° N
ADEOS II 3.1 03:04:51 10° N 03:09:29 32° WNW 03:14:06 10° SW
Cosmos 1697 Rocket 3.1 03:05:31 10° SW 03:11:01 52° WNW 03:16:35 10° NNE
Cosmos 2150 Rocket 4.0 03:06:43 10° NNW 03:11:57 80° WSW 03:17:05 10° SSE
